Temperature
13 14 13 12 11 11 10 10 9 9 9 8 8 8 8 8 7 7 7 7 7 7 7 7 7 7 7 8 10 10 10 10 10 10 9 9 8 8 9 9 10 10 10
15 14 13 12 12 11 10 10 10 9 9 8 8 8 7 7 7 7 7 7 7 6 6 6 6 6 7 7 9 9 10 10 10 10 9 9 7 7 8 8 8 8 9
14 14 13 12 12 11 11 10 10 9 9 8 8 8 7 7 7 7 7 7 6 6 6 6 6 6 6 7 8 8 9 9 9 9 9 8 7 6 6 7 7 7 8
14 14 13 12 12 11 11 11 10 10 9 9 8 8 8 7 7 7 7 6 6 6 6 6 6 6 7 7 7 8 8 8 8 8 9 8 7 6 6 6 6 6 7
14 13 13 12 12 11 11 11 10 10 10 9 9 8 8 7 7 7 7 7 6 6 6 6 6 6 7 7 7 8 8 8 8 8 8 8 7 5 5 5 5 5 6
14 13 13 12 12 12 11 11 10 10 10 9 9 9 8 8 8 8 7 7 7 7 6 6 7 7 7 7 8 8 8 8 8 8 8 8 7 5 5 5 6 5 5
13 13 13 13 12 12 11 11 10 10 10 10 9 9 9 9 8 8 8 8 7 7 7 7 7 7 7 8 8 8 8 8 8 8 8 8 7 6 6 6 6 6 6
13 12 13 12 12 11 11 11 10 10 10 10 10 9 9 9 9 8 8 8 8 7 7 7 7 7 7 7 7 7 8 8 8 7 8 7 7 6 6 6 6 6 6
12 12 13 12 12 11 11 11 10 10 10 10 10 9 9 9 9 8 8 8 8 8 7 7 7 7 7 7 7 7 7 7 7 7 7 7 7 6 6 6 6 5 6
12 12 12 12 12 11 11 11 10 10 10 10 10 9 9 9 9 8 8 8 8 8 7 7 7 7 7 7 7 7 7 7 7 7 7 7 7 6 6 5 5 5 5
12 11 11 12 12 11 11 11 10 10 10 10 10 10 9 9 9 8 8 8 8 8 7 7 7 7 7 7 7 7 7 6 6 7 7 6 6 6 5 5 5 5 4
13 12 12 11 11 11 11 10 10 10 10 10 10 10 9 9 9 9 8 8 8 8 8 7 7 7 7 7 7 6 6 6 6 6 6 6 6 6 5 5 5 4 4
15 14 13 11 10 10 10 10 10 10 10 10 10 10 9 9 9 9 9 8 8 8 8 7 7 7 7 6 6 6 6 6 6 6 6 5 5 5 5 5 4 4 4
15 15 14 13 11 10 10 10 10 10 11 11 10 10 10 9 9 9 9 8 8 8 8 7 7 7 7 6 6 6 6 6 5 5 5 5 5 5 5 4 4 4 3
15 15 15 13 12 11 10 10 10 10 11 11 11 10 10 10 9 9 8 8 8 8 8 7 7 6 6 6 6 6 5 5 5 5 5 5 4 4 4 4 3 3 2
15 15 15 14 13 12 11 11 11 11 11 11 11 10 10 10 9 9 9 8 8 8 7 7 7 6 6 6 6 5 5 5 5 4 4 4 4 4 4 3 3 2 2
15 15 15 15 14 13 12 12 11 11 11 11 11 11 10 10 10 9 9 8 8 8 7 7 6 6 6 6 5 5 5 5 4 4 4 4 4 4 3 3 2 2 1
15 14 14 14 13 13 13 12 12 11 11 11 11 11 11 10 9 9 9 8 8 7 7 7 6 6 6 5 5 5 5 4 4 4 4 3 3 3 3 2 2 2 1
15 14 14 13 14 13 13 12 12 11 11 11 11 11 11 10 10 9 9 8 8 7 7 7 6 6 6 5 5 5 4 4 4 4 3 3 3 3 3 2 2 1 1
16 14 14 13 13 12 12 11 11 10 11 10 11 11 11 11 10 9 9 8 8 7 7 7 6 6 6 5 4 4 4 4 4 3 3 3 3 3 2 2 1 1 1
16 15 14 13 12 12 11 11 11 12 12 11 11 11 10 10 10 10 9 9 8 8 8 7 6 6 5 5 4 3 4 4 4 3 3 3 3 2 2 1 1 1 0
16 15 14 13 13 12 12 13 13 12 12 12 11 10 10 10 10 10 10 9 9 8 8 7 7 6 5 5 4 3 2 2 3 3 3 3 3 2 2 1 1 0 -0
16 15 14 13 12 12 12 11 11 10 10 10 10 11 11 10 10 10 10 9 9 8 8 8 7 6 6 5 4 3 2 3 2 1 1 1 2 1 1 1 0 -0 -1
16 15 14 13 12 12 11 11 11 11 11 13 12 12 11 10 10 10 10 9 9 8 8 8 7 6 5 5 4 3 3 3 2 1 -0 -0 0 0 1 0 0 -0 -1
15 14 14 13 12 11 10 10 10 10 11 11 10 10 10 9 9 9 9 9 8 8 8 7 6 5 5 4 4 4 2 1 1 0 -1 -0 -1 -0 -0 -0 -1 -1 -1
14 14 13 12 12 11 10 9 9 9 9 9 8 8 8 8 8 8 8 8 8 7 7 6 5 4 4 3 3 3 3 2 2 1 0 0 -0 -0 -1 -1 -1 -1 -2
Wind_Speed
12 22 22 19 17 15 14 12 11 11 11 11 12 12 12 13 14 14 15 16 17 17 18 18 19 20 20 21 22 22 22 22 21 21 22 25 25 25 25 25 23 22 25
15 24 24 21 19 16 15 13 12 11 11 11 11 11 12 12 13 13 14 15 16 16 16 17 17 18 19 19 20 20 20 20 20 20 21 21 23 24 24 24 24 22 24
19 24 24 22 20 18 16 14 13 12 11 11 11 11 11 11 12 12 13 13 14 14 15 15 16 16 17 18 18 18 18 18 18 19 19 20 20 23 23 23 23 23 23
22 24 23 23 21 19 17 16 14 13 12 11 11 11 11 11 11 11 12 12 13 13 13 14 14 15 15 16 17 17 16 16 17 16 16 18 18 20 22 22 22 22 22
20 24 24 24 22 20 18 17 15 14 13 12 11 11 11 10 11 11 11 11 11 11 12 12 12 13 14 14 15 15 15 14 15 14 15 17 17 19 20 21 21 21 21
16 23 25 25 23 21 20 18 16 15 14 13 12 11 11 10 10 10 10 10 9 10 10 10 11 11 12 13 13 14 13 12 12 11 13 15 16 18 19 20 20 20 21
14 22 25 25 24 22 20 19 17 16 15 14 13 12 11 10 10 10 9 8 8 8 8 9 9 9 10 11 11 12 12 11 11 10 12 15 16 18 18 19 19 20 20
13 21 25 25 24 23 21 20 18 17 16 15 13 12 12 11 10 9 9 8 7 7 6 6 7 7 8 9 10 10 10 10 10 9 11 14 16 17 18 18 19 19 20
15 19 23 23 23 23 22 21 20 18 17 16 15 13 12 11 10 9 9 7 6 5 5 5 4 5 5 7 8 8 8 8 10 9 10 12 15 16 17 17 18 18 19
10 13 20 22 22 22 21 22 21 20 18 17 16 14 13 12 11 10 9 8 6 5 4 3 2 2 2 3 5 6 5 7 8 8 8 11 14 15 15 16 17 17 17
12 10 15 20 22 22 21 22 22 21 20 19 17 16 15 13 12 11 10 9 8 6 5 3 2 1 2 2 1 3 4 6 5 4 5 9 12 13 14 15 15 16 16
15 14 9 15 20 22 21 21 21 20 19 19 18 18 16 16 15 13 13 11 10 8 7 6 5 5 5 3 2 2 3 5 5 4 4 8 11 12 13 14 14 15 15
16 14 13 11 19 21 18 20 19 19 19 20 21 22 19 16 14 13 14 12 11 11 10 10 9 10 6 2 3 3 1 2 3 3 5 7 10 11 13 13 14 14 15
14 17 14 12 13 17 18 17 19 18 18 19 21 24 20 15 14 15 15 16 16 15 14 12 12 10 7 7 6 4 3 3 3 3 5 8 9 11 12 13 13 14 14
18 18 16 14 11 13 14 14 16 16 18 20 22 24 23 16 13 14 14 16 17 16 15 12 12 10 9 8 7 6 5 5 5 6 6 9 10 11 12 12 13 13 14
19 19 18 17 13 14 11 10 12 16 18 20 21 23 24 21 17 15 14 14 16 16 16 15 12 9 8 8 7 7 7 8 8 8 8 9 11 12 12 13 13 13 14
16 17 18 18 14 14 12 13 14 16 18 18 20 24 25 23 20 17 13 12 16 17 16 13 12 9 6 6 6 9 10 9 9 9 10 10 11 12 13 14 14 14 15
14 16 18 18 17 16 13 13 13 16 17 18 20 23 25 25 23 19 13 11 18 18 15 9 6 5 5 5 5 5 8 9 10 12 13 13 12 12 13 14 15 16 16
16 15 17 17 17 16 13 11 13 14 15 18 20 21 24 26 25 20 14 15 19 15 12 9 6 7 6 6 6 6 5 6 9 12 13 14 15 15 15 16 17 17 18
15 14 15 16 15 14 12 9 9 10 10 15 17 20 22 25 26 22 16 16 17 9 9 8 8 8 6 6 6 6 6 5 8 9 12 14 15 16 17 17 17 17 19
13 13 15 16 15 14 12 13 14 14 12 10 12 19 23 24 25 23 14 14 14 11 12 11 9 8 8 5 3 4 6 9 10 9 11 10 12 16 17 17 17 17 17
12 12 13 15 16 15 14 12 10 9 9 9 8 15 22 24 25 24 17 11 11 11 13 14 10 8 8 8 5 3 4 5 9 12 8 8 9 13 14 17 18 18 19
9 12 12 13 15 16 14 8 7 7 7 10 11 13 16 23 24 23 21 15 12 14 15 16 14 15 12 10 8 6 5 8 4 4 9 9 8 7 9 14 17 19 20
8 9 11 12 13 14 14 12 13 14 17 17 12 11 12 18 21 24 22 20 14 14 15 16 16 13 11 9 8 9 5 5 5 3 4 7 10 10 9 11 14 18 20
3 7 8 10 11 12 13 15 14 16 15 10 10 12 14 14 17 20 21 18 17 16 16 15 16 16 14 12 8 6 7 6 5 5 5 5 6 7 9 8 12 16 19
2 2 5 7 9 10 12 13 15 17 14 11 12 12 12 11 13 16 16 16 16 16 17 16 15 16 16 15 12 9 8 6 8 9 11 8 6 6 8 8 8 12 17
Wind_Direction
142 153 156 152 149 145 139 132 126 119 111 104 98 93 87 84 80 75 72 69 67 64 62 59 57 58 57 54 51 48 47 47 48 48 43 42 46 47 45 44 43 38 38
143 153 157 154 153 150 145 139 134 128 121 114 107 101 95 89 84 79 75 72 69 66 63 61 59 57 57 55 52 49 48 48 48 48 43 32 37 44 44 41 41 39 37
145 152 158 157 156 154 150 146 142 136 131 124 116 109 102 96 91 86 81 77 73 69 65 62 60 58 56 55 53 50 49 49 50 49 39 21 23 41 42 40 38 37 36
150 153 161 160 158 157 156 153 149 145 140 133 126 119 112 105 99 93 87 82 77 73 68 64 61 58 56 54 52 50 49 51 52 51 35 21 16 36 39 37 36 35 34
152 156 162 162 162 161 161 159 156 152 147 141 136 129 122 114 107 101 95 89 83 78 73 67 62 58 55 53 50 47 47 51 55 47 38 22 9 30 36 34 32 32 31
155 157 161 165 166 166 166 164 162 159 155 150 144 139 132 125 117 110 103 97 90 83 77 71 64 59 54 51 48 44 44 52 59 48 43 22 8 26 31 30 28 27 26
158 156 162 169 170 170 170 169 168 165 161 158 154 150 143 136 129 122 114 106 98 89 81 73 66 59 53 49 44 40 38 44 64 53 47 19 12 24 26 25 22 21 21
159 154 164 173 174 174 175 174 173 171 168 165 162 158 154 148 142 136 130 121 112 101 89 78 67 56 49 45 40 35 35 39 51 41 50 19 16 20 20 19 17 15 15
162 156 163 176 178 179 179 179 178 176 174 172 170 167 163 159 155 150 145 139 131 120 105 89 74 55 43 40 35 30 31 35 53 44 40 15 14 14 15 14 12 10 10
166 164 165 176 179 180 182 183 182 182 180 178 176 174 172 169 165 163 161 159 154 148 139 124 96 54 32 31 28 22 24 31 46 53 44 12 10 9 9 8 7 5 4
177 176 170 177 180 180 181 187 186 186 185 182 180 180 177 173 172 177 175 174 175 175 175 176 192 245 253 257 352 5 17 20 35 53 53 8 3 1 1 1 360 358 357
188 185 181 180 179 180 184 184 183 185 185 180 177 181 184 190 184 182 180 183 189 193 197 205 224 239 252 257 292 320 16 9 11 18 15 356 353 352 352 352 351 350 350
190 186 188 186 180 180 182 176 182 185 182 185 181 181 192 195 182 171 171 188 196 203 210 210 226 233 236 219 265 286 341 335 333 355 341 335 339 340 341 341 341 341 341
191 192 190 187 182 181 179 178 181 184 183 188 189 182 189 187 180 183 182 186 194 200 209 206 220 218 217 227 233 260 278 280 297 307 304 311 320 325 327 329 330 330 331
195 193 192 189 186 182 179 181 185 185 184 186 189 186 186 185 185 190 196 193 195 196 197 208 219 216 212 223 229 238 249 264 271 280 285 293 301 307 311 314 316 318 319
197 194 191 192 189 185 185 185 188 188 184 186 190 192 190 188 189 192 195 196 198 201 198 203 214 213 212 216 226 238 242 250 255 261 267 276 287 292 296 299 303 305 308
198 192 192 194 191 190 191 191 193 192 189 191 192 195 196 194 192 193 195 195 198 200 200 204 215 212 215 218 221 235 238 239 246 258 263 262 264 274 282 285 289 293 296
197 191 192 194 195 195 194 195 197 197 196 197 196 196 199 200 197 194 197 196 196 196 197 195 200 194 210 214 221 229 227 226 236 248 253 253 251 253 263 274 280 283 287
198 190 189 190 194 196 194 194 200 201 203 201 201 199 200 201 201 199 199 198 193 192 193 198 197 196 204 210 216 222 220 224 232 243 243 243 243 243 246 257 269 276 280
193 189 186 188 190 191 192 195 202 210 209 206 205 204 200 202 203 202 202 199 193 191 194 197 198 199 202 201 218 228 224 223 230 233 237 241 239 238 240 242 250 262 272
182 186 185 188 190 190 196 202 205 211 211 210 208 206 203 201 202 203 205 201 198 199 200 196 192 199 203 186 196 258 255 235 233 230 226 226 230 233 235 235 238 243 253
181 188 188 189 191 195 202 205 207 208 211 215 211 211 207 204 202 206 206 204 202 202 202 201 195 194 198 186 174 187 259 264 232 227 212 214 220 224 227 234 236 237 239
189 193 198 196 195 197 197 194 201 206 211 216 216 216 211 208 206 206 208 207 205 205 209 206 199 197 202 197 186 172 191 226 244 222 213 215 214 214 221 230 235 237 239
209 200 199 199 199 197 194 201 203 210 218 220 218 216 213 212 211 210 209 209 210 210 212 211 207 203 195 199 203 209 200 170 181 243 251 222 217 219 220 231 238 236 236
225 201 202 204 207 202 200 205 212 222 229 228 220 219 217 217 216 214 212 211 214 215 214 211 210 207 206 204 196 188 212 219 194 193 239 238 227 222 222 223 232 235 236
337 199 199 209 219 212 208 210 215 225 229 229 227 226 223 220 219 218 215 215 217 218 217 214 212 212 212 211 209 197 183 186 202 203 219 223 229 230 225 224 228 232 235
Height
1557 1560 1563 1565 1566 1568 1569 1570 1571 1571 1572 1572 1572 1572 1572 1572 1571 1571 1570 1570 1569 1568 1568 1567 1566 1564 1563 1561 1560 1560 1559 1559 1558 1558 1558 1559 1559 1558 1557 1556 1556 1555 1555
1555 1558 1561 1563 1565 1567 1568 1569 1570 1571 1571 1571 1572 1572 1572 1571 1571 1571 1570 1570 1569 1568 1568 1567 1566 1565 1563 1562 1561 1560 1559 1559 1559 1558 1558 1558 1559 1559 1558 1557 1556 1556 1555
1554 1556 1559 1561 1563 1565 1567 1568 1569 1570 1570 1571 1571 1571 1571 1571 1571 1571 1570 1570 1569 1568 1567 1566 1566 1565 1564 1562 1561 1560 1560 1559 1559 1558 1558 1558 1558 1559 1558 1557 1557 1556 1555
1552 1554 1557 1559 1562 1564 1565 1567 1568 1569 1569 1570 1570 1570 1570 1570 1570 1570 1570 1569 1569 1568 1567 1566 1566 1565 1564 1563 1562 1561 1560 1559 1559 1559 1558 1558 1558 1559 1558 1557 1556 1556 1555
1550 1552 1555 1557 1560 1562 1564 1565 1566 1567 1568 1569 1569 1569 1570 1570 1569 1569 1569 1569 1568 1567 1567 1566 1565 1565 1564 1563 1562 1561 1561 1560 1559 1559 1558 1558 1557 1559 1558 1557 1556 1555 1554
1549 1550 1552 1555 1558 1560 1562 1563 1565 1566 1567 1567 1568 1568 1569 1569 1569 1568 1568 1568 1567 1567 1566 1566 1565 1565 1564 1563 1563 1562 1561 1560 1560 1559 1558 1558 1557 1558 1557 1556 1555 1555 1554
1547 1548 1550 1553 1555 1558 1560 1561 1563 1564 1565 1566 1566 1567 1567 1567 1567 1567 1567 1567 1567 1567 1566 1565 1565 1565 1564 1563 1563 1562 1561 1561 1560 1559 1558 1558 1557 1557 1557 1556 1555 1554 1553
1545 1546 1547 1550 1553 1555 1557 1559 1560 1562 1563 1564 1565 1565 1566 1566 1566 1566 1566 1566 1566 1566 1565 1565 1564 1564 1563 1563 1563 1562 1562 1561 1560 1559 1558 1558 1557 1557 1556 1555 1554 1553 1552
1543 1543 1544 1547 1550 1552 1554 1556 1558 1559 1560 1561 1562 1563 1564 1564 1565 1565 1565 1565 1565 1565 1564 1564 1564 1563 1563 1562 1562 1562 1561 1560 1559 1559 1558 1557 1557 1556 1555 1554 1553 1552 1551
1540 1541 1541 1544 1546 1548 1551 1553 1555 1556 1558 1559 1560 1561 1562 1562 1563 1563 1563 1563 1563 1563 1563 1563 1562 1562 1562 1561 1561 1561 1560 1559 1558 1558 1557 1556 1555 1554 1553 1552 1551 1550 1549
1536 1537 1538 1539 1542 1544 1547 1549 1551 1553 1554 1556 1557 1558 1559 1560 1561 1561 1561 1561 1561 1561 1561 1561 1561 1560 1560 1560 1560 1559 1559 1558 1557 1556 1556 1555 1554 1553 1552 1551 1549 1548 1547
1530 1532 1534 1536 1537 1540 1542 1544 1546 1548 1550 1552 1553 1555 1556 1557 1557 1558 1558 1558 1559 1559 1559 1559 1558 1558 1558 1558 1558 1558 1557 1556 1555 1555 1554 1553 1552 1551 1550 1549 1547 1546 1545
1525 1527 1529 1532 1534 1535 1537 1539 1541 1543 1545 1547 1549 1551 1552 1553 1554 1554 1555 1556 1556 1556 1556 1556 1556 1556 1556 1556 1556 1555 1555 1554 1553 1553 1552 1551 1550 1549 1548 1547 1545 1544 1543
1520 1521 1524 1527 1529 1531 1533 1534 1536 1538 1540 1542 1544 1546 1548 1549 1550 1551 1551 1552 1553 1553 1553 1553 1553 1553 1553 1553 1553 1552 1552 1551 1551 1550 1549 1548 1547 1546 1545 1544 1542 1541 1540
1514 1516 1518 1521 1523 1526 1528 1529 1531 1533 1534 1537 1539 1541 1543 1544 1546 1547 1547 1548 1548 1549 1549 1550 1550 1549 1549 1550 1549 1549 1549 1548 1547 1547 1546 1545 1544 1543 1541 1540 1539 1538 1536
1508 1510 1512 1515 1517 1520 1522 1523 1525 1527 1529 1531 1534 1536 1537 1539 1541 1542 1542 1543 1544 1544 1545 1546 1546 1546 1546 1545 1545 1545 1545 1544 1543 1543 1542 1541 1540 1539 1538 1536 1535 1534 1533
1504 1505 1507 1509 1512 1514 1516 1518 1520 1522 1524 1525 1527 1530 1532 1533 1535 1536 1537 1538 1539 1540 1540 1541 1541 1541 1541 1541 1541 1540 1540 1540 1539 1538 1537 1536 1536 1535 1533 1532 1531 1530 1528
1499 1501 1502 1504 1506 1508 1510 1513 1515 1517 1518 1520 1521 1523 1525 1527 1529 1530 1531 1532 1533 1534 1535 1535 1536 1536 1536 1536 1535 1535 1535 1534 1534 1533 1533 1532 1531 1530 1529 1527 1526 1525 1524
1493 1495 1497 1498 1500 1503 1505 1507 1510 1511 1512 1513 1515 1516 1518 1520 1522 1523 1524 1526 1527 1528 1528 1529 1529 1530 1530 1530 1529 1529 1528 1528 1528 1528 1527 1526 1525 1524 1523 1522 1521 1520 1518
1487 1490 1492 1493 1495 1498 1500 1502 1503 1505 1505 1506 1507 1508 1510 1512 1514 1516 1517 1518 1520 1520 1520 1521 1522 1523 1523 1524 1523 1522 1521 1521 1521 1521 1520 1520 1519 1518 1517 1516 1515 1514 1513
1483 1486 1487 1488 1489 1492 1493 1493 1494 1495 1497 1498 1499 1501 1503 1504 1506 1508 1509 1510 1511 1511 1512 1514 1515 1515 1516 1517 1516 1515 1513 1514 1513 1513 1513 1513 1512 1512 1510 1509 1508 1507 1506
1479 1481 1482 1482 1483 1484 1485 1486 1488 1490 1491 1492 1493 1494 1494 1495 1497 1498 1500 1501 1502 1503 1504 1505 1506 1506 1507 1509 1508 1508 1506 1504 1502 1504 1504 1504 1505 1505 1504 1503 1501 1500 1499
1477 1477 1477 1477 1477 1478 1479 1482 1483 1484 1484 1484 1483 1484 1485 1487 1488 1488 1490 1492 1493 1493 1494 1494 1496 1497 1497 1498 1498 1500 1499 1495 1495 1493 1494 1495 1497 1497 1496 1496 1494 1493 1492
1474 1473 1473 1473 1473 1473 1474 1475 1474 1474 1472 1471 1474 1476 1478 1479 1479 1479 1480 1481 1482 1483 1483 1484 1486 1486 1488 1488 1488 1487 1489 1490 1490 1487 1485 1486 1487 1487 1488 1488 1487 1486 1484
1472 1471 1470 1469 1469 1469 1469 1468 1468 1467 1467 1468 1470 1469 1469 1469 1470 1470 1471 1471 1471 1471 1472 1474 1474 1475 1475 1477 1477 1477 1478 1479 1479 1479 1477 1476 1477 1477 1479 1479 1479 1478 1477
1470 1468 1467 1466 1465 1466 1465 1464 1463 1462 1463 1463 1463 1462 1462 1461 1461 1461 1461 1461 1461 1461 1461 1462 1464 1464 1464 1465 1466 1466 1465 1466 1465 1466 1466 1466 1467 1468 1470 1470 1470 1470 1469